STARLINK-1707, 46359

Orbit data source: Space-Track

STARLINK-1707, 46359 is a payload satellite owned by SpaceX/Seattle (US) in LEO that was launched on Thu, 03 Sep 2020 UTC via an FALCON 9 launch vehicle from the Air Force Eastern Test Range (AFETR). Payload-class satellites include a variety of spacecraft equipped with specific instruments for various scientific and technological missions. These include communications satellites like Starlink; space stations such as the ISS; scientific satellites like the Hubble; Earth observation satellites from companies like Planet Labs, Umbra, and HawkEye 360; GPS; miniature CubeSats for education and research; and military/defense satellites.

Loading next visibility...
Identifier
46359, 2020-062AL
Orbit
LEO
Country
Flag of USUS
Related business
Manufacturer
SpaceX/Seattle
Mission
Partially operational Commercial Communications
Bus & Motor
STARLINK, Unknown motor
Mass
260 kg wet, ~248 kg dry
Launch date (UTC)
2020-09-03 (6 years ago)
Launch vehicle
FALCON 9
Launch site
Air Force Eastern Test Range (AFETR)
Object type
Payload
Rocket body
Debris
Shape & HBR
Box + 1 Pan, 10.1 m
Radar Cross Section
13.562 m², Large (>1 m²)

Expand to show TLE details & history
Last TLE update: 18 hours ago

TLE from 18 hours ago
0 STARLINK-1707
1 46359U 20062AL  26072.53692673  .00106549  00000-0  10384-2 0  9998
2 46359  53.0241 255.5805 0003948 165.5173 194.5955 15.65429643306345
Epoch: 2026-03-13T12:53Z
TLE epoch observation values (Epoch: 2026-03-13T12:53:10.469Z)
Latitude
-0.00003°
Longitude
-108.88418°
Altitude
375.481 km
Speed
7.684 km/s
True Right ascension
17h 02m 19s
True Declination
0° 00' 00"
Sunlit
Object was in daylight at epoch
Visualization orbit readout
Latitude
Unknown
Longitude
Unknown
Altitude
Unknown
Speed
Unknown
Apparent Right ascension
Unknown
Apparent Declination
Unknown
Sunlit
N/A
Visualization observer readout
Local Sidereal Time
11:05:08
Azimuth
Unknown
Elevation
Unknown
Doppler factor
Unknown
Orbital elements
Apogee altitude
374.951 km
Perigee altitude
369.621 km
Semi-major axis
6,750.423 km
Eccentricity
0.00039
Inclination
53.0241°
RAAN
255.5805°
Arg. of periapsis
165.5173°
True anomaly
194.58411°
Mean anomaly
194.5955°
Eccentric anomaly
194.5898°
Mean motion
3.91333 °/min
Orbital period
91.99 mins
BSTAR
0.0010384
Loading maneuver chart data...
Computing Atmospheric mass density...
Loading historical data...
Loading historical data...
Loading historical data...
Loading historical data...
Loading historical data...
Loading historical data...
Loading historical data...

Documentation

Showing up to 5 results
|